RH
89 86 83 77 76 77 76 78 79 82 82 80 78 78 77 77 76 74 72 71 71 68 69 74 72 72 71 68 75 78 79 80 80 81 85 84 79 73 76 81 84 78 78
81 78 84 81 77 77 79 80 82 84 84 82 80 79 79 77 74 72 70 71 68 65 65 70 74 74 70 69 71 77 78 78 82 87 86 84 84 77 76 78 82 79 80
73 72 73 82 81 79 80 79 83 83 83 82 77 73 73 73 72 71 71 71 69 68 67 65 70 71 72 72 73 69 69 72 77 78 80 85 85 79 76 79 81 78 77
67 71 75 82 80 78 78 78 80 79 79 79 76 74 74 75 73 73 76 73 71 72 72 72 70 71 72 73 74 74 71 70 78 81 73 71 70 75 74 75 73 72 72
75 74 76 84 81 78 78 79 79 78 80 81 82 79 76 74 76 76 78 78 77 76 76 75 74 72 73 75 74 71 70 73 80 71 78 81 84 76 72 71 70 71 75
52 47 58 80 80 82 84 83 80 79 80 80 79 78 77 75 73 75 79 82 83 82 77 78 77 77 77 74 73 70 73 76 80 78 84 78 81 73 72 71 71 72 71
51 51 50 65 69 73 74 81 83 83 82 82 82 81 79 76 75 75 80 82 83 81 78 78 79 79 79 77 73 74 77 79 78 77 74 76 83 71 68 69 73 72 72
53 53 54 61 66 66 66 73 72 75 78 82 83 82 81 80 77 76 77 81 79 77 78 78 77 78 80 80 78 80 83 80 75 77 77 77 79 72 71 73 74 75 78
55 56 57 58 60 66 66 71 73 67 68 70 73 74 77 83 83 78 79 79 77 77 77 79 80 80 77 77 82 87 87 85 90 79 64 72 78 70 73 77 78 75 78
57 57 58 59 58 62 61 72 74 73 69 62 67 71 78 79 78 82 82 82 82 80 82 84 82 82 83 85 83 89 90 87 91 79 74 75 70 54 58 70 74 72 75
57 54 53 58 59 62 62 68 72 68 69 67 63 72 67 53 63 78 86 86 82 84 85 82 82 85 87 88 87 88 91 97 91 81 73 84 79 64 52 70 76 73 76
59 52 50 53 60 64 60 74 75 68 72 65 63 63 61 60 60 58 71 82 82 83 84 84 84 84 89 94 94 93 98 96 92 81 70 84 79 71 72 78 80 81 80
56 53 50 49 52 56 68 78 76 75 73 72 67 69 72 69 69 67 69 72 79 79 85 89 90 89 93 96 94 95 94 93 84 67 74 85 80 71 70 76 79 84 83
54 54 49 48 46 46 60 75 70 74 71 69 60 56 64 68 71 74 73 69 66 68 73 73 89 88 92 91 93 93 89 76 70 61 80 89 81 74 73 76 80 84 82
52 52 51 46 47 42 45 48 57 58 59 55 57 53 54 59 64 68 75 76 72 70 69 70 68 71 82 89 87 91 92 91 79 60 80 91 86 84 80 77 80 77 77
46 50 47 46 48 45 46 45 46 50 56 48 47 48 52 50 54 62 70 77 74 74 74 73 73 69 85 91 91 91 90 94 91 80 74 86 86 85 86 82 78 78 78
48 50 46 44 48 47 49 49 45 50 44 51 42 46 46 43 47 55 64 69 66 71 75 77 74 78 88 89 90 88 91 91 96 94 85 74 83 88 87 81 82 80 80
47 46 50 43 48 50 49 53 45 47 50 49 48 42 45 40 43 48 58 54 56 66 74 79 79 82 85 87 93 93 94 93 88 90 94 90 86 76 86 86 87 85 83
44 46 49 48 49 50 50 55 56 48 52 48 57 40 42 39 40 45 59 55 54 59 67 72 76 85 85 83 78 83 94 97 95 80 88 90 93 90 85 86 88 90 90
46 47 49 47 50 49 53 50 55 48 56 48 60 41 41 40 37 46 51 58 57 57 59 62 71 77 85 89 73 72 86 89 94 97 94 82 92 90 93 85 92 84 92
52 50 49 51 50 54 54 51 48 50 57 49 55 45 41 40 41 41 44 52 54 57 62 58 61 73 79 82 88 85 88 82 77 82 81 87 88 86 93 90 86 90 86
53 53 52 50 51 52 54 57 62 54 59 55 54 48 46 42 44 37 45 48 46 51 54 58 65 73 72 79 90 91 94 88 80 73 76 78 81 82 90 91 92 86 82
51 54 51 53 52 51 54 57 52 50 51 53 50 49 48 44 47 49 47 45 45 50 55 56 58 71 73 64 80 93 96 96 94 84 79 78 73 94 85 88 92 90 85
48 50 52 50 53 42 53 52 55 57 56 51 51 49 47 44 46 50 50 48 48 50 52 54 40 53 66 80 76 71 84 88 93 90 84 84 76 81 88 92 90 93 90
45 48 50 53 52 50 52 54 56 56 55 54 51 49 47 47 47 48 51 48 48 49 49 49 53 54 55 61 70 73 76 79 82 94 86 80 78 78 85 87 85 84 83
45 47 50 51 54 53 54 53 56 56 54 54 53 55 54 51 51 48 47 49 50 50 50 52 51 51 51 56 58 62 66 72 82 90 94 88 85 70 66 68 85 87 81
Wind_Speed
4 6 12 12 12 13 12 13 13 13 12 12 12 12 12 12 12 12 12 12 11 11 11 13 12 12 13 12 11 12 12 12 12 12 11 10 11 12 11 11 12 11 16
7 8 11 11 12 11 11 11 12 11 11 11 12 12 11 11 10 10 10 10 11 11 11 10 11 12 11 11 10 10 10 10 9 9 9 9 9 5 8 10 11 11 14
13 10 11 13 12 12 11 11 11 10 10 11 11 11 11 10 9 9 8 9 10 10 10 10 10 10 10 10 10 9 8 7 7 6 4 2 5 10 12 11 11 12 13
14 11 12 15 14 12 11 10 9 9 9 9 9 9 9 8 8 8 8 7 9 9 8 8 9 8 8 8 8 8 8 7 8 9 4 3 4 10 12 10 9 11 11
15 13 13 16 16 16 15 13 12 12 11 10 9 8 8 7 8 8 7 7 7 7 7 7 6 6 6 6 6 6 7 9 10 6 4 5 3 8 10 9 8 9 8
17 17 21 19 16 16 16 15 13 12 11 10 9 8 8 7 6 6 5 4 4 5 5 5 5 4 4 4 4 4 6 8 8 6 2 6 2 9 10 9 7 8 8
16 16 16 25 25 18 14 14 13 12 11 11 10 8 7 6 5 4 4 4 3 2 2 1 2 4 2 1 1 2 6 8 6 6 3 4 3 7 10 9 8 8 8
17 16 17 22 24 22 20 13 11 9 9 8 8 7 7 6 5 3 1 2 1 0 1 2 2 2 1 2 2 1 4 7 5 5 3 3 3 5 9 6 5 7 8
17 17 15 15 18 21 20 18 14 8 6 6 6 6 7 7 7 5 4 4 3 2 3 3 4 5 4 3 3 3 4 7 4 4 3 2 5 5 5 5 2 5 7
16 15 14 14 14 14 12 20 19 15 12 9 10 10 9 9 7 7 4 3 4 5 6 6 5 7 7 6 5 5 5 7 4 4 2 4 6 5 3 5 5 4 5
13 14 14 13 13 13 12 14 17 16 16 13 11 10 8 6 7 3 3 5 5 6 8 8 7 7 7 7 8 7 6 3 5 3 2 9 10 8 5 6 7 7 6
15 14 13 13 13 12 10 12 12 13 11 12 13 13 10 10 10 10 8 9 7 7 9 10 9 8 6 4 3 6 3 5 4 4 3 13 12 9 11 9 9 9 9
10 11 14 13 12 13 10 7 6 6 7 9 15 14 12 10 9 8 5 5 5 6 4 5 5 4 5 4 4 3 4 5 4 3 4 10 9 8 8 8 11 13 11
11 12 13 14 13 13 8 7 8 7 7 8 11 15 10 8 10 10 8 9 8 6 6 4 3 5 5 6 6 5 5 5 4 3 5 7 7 8 8 7 8 15 12
12 12 13 14 13 12 12 9 10 10 10 11 10 13 11 10 10 9 9 9 9 10 7 8 6 4 4 5 5 4 5 5 6 3 3 11 9 8 8 10 9 13 13
11 12 11 13 13 12 11 12 9 9 9 10 10 12 13 10 10 9 9 9 9 9 9 7 6 7 6 3 4 6 5 5 5 4 4 4 10 11 11 11 12 15 15
8 9 13 13 13 13 13 11 9 9 9 8 8 11 12 11 11 11 9 10 10 9 11 9 10 9 7 5 5 4 5 5 4 5 3 4 4 10 13 15 15 15 16
8 11 9 11 12 12 12 9 8 9 7 7 7 8 11 12 12 10 8 9 11 10 9 8 7 8 7 7 6 5 5 5 6 5 4 3 3 4 8 14 15 15 16
8 9 10 11 11 11 10 7 7 9 7 7 5 8 11 11 12 9 8 9 11 9 9 9 9 5 6 8 9 6 5 5 5 6 6 5 5 5 4 8 14 14 13
7 7 8 9 10 9 7 6 4 6 6 7 5 9 11 9 13 10 8 8 9 9 9 10 12 10 6 5 8 9 6 4 5 5 7 7 6 6 6 7 6 8 14
7 8 9 9 10 7 8 9 7 10 6 8 6 10 11 11 12 12 8 8 8 8 9 10 9 12 9 9 6 6 5 7 8 6 6 7 9 9 6 6 5 6 6
6 6 6 7 7 6 6 4 3 6 3 5 5 7 9 11 11 11 10 9 10 8 10 9 9 8 7 7 6 8 5 5 4 7 5 5 9 7 7 7 7 8 8
6 6 6 6 6 5 6 4 5 4 4 4 8 8 8 10 10 10 10 9 10 7 7 8 8 7 8 10 8 5 4 4 4 3 3 5 8 4 7 8 7 8 10
3 4 5 6 5 7 6 7 7 6 8 8 9 9 10 11 11 10 10 9 9 7 8 7 9 9 7 9 9 5 9 7 5 6 4 4 5 5 6 5 5 6 8
5 5 5 5 7 7 8 7 6 8 7 8 9 12 12 10 10 11 11 10 10 8 8 9 8 8 7 8 8 9 10 9 9 7 11 7 5 5 5 5 5 5 5
6 6 6 6 6 7 6 7 7 9 10 10 11 10 9 9 8 11 12 11 10 10 10 9 9 10 9 9 8 9 9 7 8 8 6 8 11 11 9 8 6 5 5
Wind_Direction
22 78 80 76 76 76 72 65 66 66 65 73 74 75 74 73 68 67 70 74 72 70 66 65 75 72 62 59 53 49 65 70 82 78 68 60 67 90 97 110 113 104 102
93 68 71 74 76 77 73 68 71 67 66 71 72 68 66 65 62 63 67 76 77 73 69 68 68 67 66 65 56 53 46 60 63 73 80 78 56 79 110 108 105 104 105
74 62 56 56 62 63 60 60 61 62 61 61 65 64 63 61 62 62 64 70 73 74 71 68 69 72 76 69 63 46 43 35 33 42 21 21 88 95 94 82 91 100 102
69 58 54 53 56 56 55 55 56 65 73 73 73 72 73 71 75 67 52 71 69 68 70 68 74 77 79 80 68 50 25 18 32 354 314 173 114 108 101 99 100 106 110
55 51 49 52 52 51 50 46 46 48 47 49 53 53 56 54 66 67 66 74 84 81 76 70 63 73 79 78 70 52 27 7 1 5 349 99 137 126 116 113 110 115 112
33 27 24 26 50 51 47 46 45 45 44 43 41 43 39 40 51 50 44 74 103 102 98 102 97 67 65 68 62 38 12 1 1 357 63 45 116 156 135 131 129 135 134
28 28 23 24 21 29 47 43 38 38 37 34 33 29 30 25 29 49 54 70 102 93 85 70 119 135 116 34 40 18 349 345 4 357 1 73 62 175 141 145 148 155 157
29 23 21 13 14 12 4 28 30 31 31 28 21 11 4 359 351 350 23 63 69 42 222 221 269 272 193 216 265 278 319 327 354 335 237 118 126 151 139 154 162 196 161
31 25 15 7 4 2 360 10 356 7 12 1 350 339 339 328 322 315 316 327 311 310 291 264 246 254 255 260 268 241 287 304 330 303 266 125 147 127 143 155 177 172 163
28 24 14 6 2 358 352 4 359 345 339 339 337 335 332 317 300 307 326 284 294 297 286 274 260 246 249 254 254 248 256 284 289 286 255 168 174 167 173 211 203 192 187
26 23 13 7 5 357 8 1 1 8 16 15 10 343 349 9 352 288 211 218 247 276 283 271 260 254 248 254 257 250 247 267 274 258 228 204 188 194 197 240 214 222 204
22 18 15 6 4 2 14 11 10 11 9 13 18 14 16 9 4 6 351 320 315 285 271 277 269 247 249 254 262 255 243 241 258 267 264 209 181 195 193 221 229 228 217
19 22 15 8 6 9 4 12 14 16 17 23 22 18 12 10 1 3 358 357 338 337 321 306 273 250 233 240 256 244 233 251 252 237 237 194 185 212 228 232 237 218 207
24 19 13 9 12 13 7 14 18 15 17 23 25 19 18 11 3 360 355 351 355 346 346 345 327 255 240 233 237 240 240 229 241 231 198 209 206 212 220 245 245 190 195
31 19 15 13 13 12 20 16 14 15 26 25 25 19 18 11 3 354 355 357 358 351 355 348 343 351 355 340 309 265 270 253 246 236 212 188 206 219 226 216 221 208 194
34 26 17 21 14 16 19 14 16 14 15 25 22 17 19 12 1 355 351 357 356 350 343 343 339 343 331 337 336 327 310 303 286 251 212 227 206 203 214 223 215 214 202
39 27 26 24 16 19 17 16 15 12 17 23 19 9 14 14 6 357 352 355 352 342 346 353 355 349 333 323 298 292 301 287 277 291 265 235 231 234 209 215 220 216 215
39 34 26 23 21 18 13 11 12 9 10 8 14 7 6 10 3 359 358 355 344 341 345 349 349 342 343 333 313 295 282 283 282 254 251 264 249 236 239 221 218 219 219
36 31 28 24 23 16 8 2 2 2 2 2 3 7 358 4 358 356 348 351 349 346 346 345 336 329 332 329 326 315 293 276 266 281 270 245 230 234 221 241 225 225 222
31 26 25 24 17 15 8 0 357 7 352 358 4 2 355 357 353 348 343 345 350 346 346 343 336 334 319 307 314 305 294 276 275 253 257 265 247 235 221 230 225 227 227
28 27 22 19 11 18 12 5 2 357 344 350 0 351 352 354 348 345 340 340 344 342 334 336 332 328 325 332 310 317 301 288 276 256 247 242 245 242 226 225 224 221 226
37 21 17 18 9 15 13 1 345 330 333 316 341 338 343 345 341 336 335 339 340 331 331 333 336 331 318 349 317 307 293 311 285 255 249 245 242 234 231 232 220 222 218
32 19 14 3 1 5 356 346 344 328 326 325 340 333 333 333 331 325 328 330 329 328 320 324 325 329 322 313 305 300 307 267 337 303 314 268 258 227 234 230 226 227 222
46 26 11 1 5 5 353 355 353 344 333 328 323 319 322 323 318 316 317 318 314 319 317 318 320 312 306 308 322 298 312 308 298 292 292 311 308 279 258 249 239 236 226
31 22 5 5 5 356 352 350 340 330 320 314 311 312 311 311 312 310 308 312 307 305 302 302 306 313 303 295 296 305 307 298 296 285 279 276 285 270 245 242 248 248 237
17 14 3 4 344 335 329 324 320 313 312 312 308 307 307 306 304 303 301 296 292 294 295 292 293 290 287 285 282 285 282 282 298 296 304 292 264 269 268 259 242 242 250